Location: Il Ritiro
(43.4167°N, 13.1333°E)
Time: 01:31:22
(UTC+00:00)

Cosmos 2344 - Pass Details

Date: 05 July 2020
Orbit: 1249 x 2993 km, 63.3° (Epoch: 11 August)

Event Time Altitude Azimuth Distance (km) Brightness Sun altitude
Exits shadow 22:16:00 24° 213° (SSW) 2,358 4.6 -22.7°
Maximum altitude 22:20:57 88° 127° (SE) 1,262 3.4 -22.9°
Drops below altitude 10° 22:28:55 10° 37° (NE) 3,452 6.4 -23.2°
Sets 22:31:58 0° 38° (NE) 4,573 7.1 -23.3°
